Date,TemperatureHighF,TemperatureAvgF,TemperatureLowF,DewpointHighF,DewpointAvgF,DewpointLowF,HumidityHigh,HumidityAvg,HumidityLow,PressureMaxIn,PressureMinIn,WindSpeedMaxMPH,WindSpeedAvgMPH,GustSpeedMaxMPH,PrecipitationSumIn
2013-11-1,68.9,64.8,57.7,66.0,62.3,57.0,97,92,83,29.93,29.69,3,0,7,0.43
2013-11-2,69.7,58.1,48.6,58.0,51.3,42.0,98,81,39,30.00,29.75,3,0,9,0.01
2013-11-3,61.7,50.5,40.0,44.0,39.0,36.0,93,68,41,30.37,30.01,4,0,7,0.00
2013-11-4,60.0,49.1,36.3,39.0,35.4,32.8,94,62,37,30.55,30.37,4,0,5,0.00
2013-11-5,58.9,50.0,38.8,49.0,41.5,32.0,84,73,63,30.58,30.45,2,0,5,0.00
2013-11-6,72.6,60.3,49.4,57.5,52.3,47.0,93,76,58,30.45,30.10,3,0,4,0.00
2013-11-7,70.4,57.6,46.9,62.0,50.5,34.0,97,80,44,30.11,29.93,3,0,9,0.00
2013-11-8,59.6,49.1,38.8,35.0,30.7,24.6,80,52,27,30.31,30.11,4,0,7,0.00
2013-11-9,59.6,46.4,31.8,37.0,32.6,30.0,94,62,35,30.38,30.21,6,0,6,0.00
2013-11-10,72.2,55.3,42.0,43.0,37.3,34.0,84,54,29,30.22,30.10,2,0,5,0.00
2013-11-11,62.5,50.6,40.4,37.0,31.8,28.0,72,50,31,30.33,30.14,2,0,5,0.00
2013-11-12,65.6,48.2,32.6,42.7,35.6,20.0,94,65,33,30.44,30.05,4,1,17,0.08
2013-11-13,46.8,35.8,26.8,25.0,21.1,18.0,80,57,34,30.55,30.43,2,0,8,0.00
2013-11-14,58.6,41.6,25.1,29.6,25.0,22.8,92,57,27,30.50,30.34,2,0,8,0.00
2013-11-15,61.0,50.1,32.9,52.0,40.7,25.0,94,71,51,30.35,30.19,1,0,2,0.02
2013-11-16,64.6,56.0,50.5,58.0,53.4,49.0,96,91,78,30.25,30.17,0,0,2,0.00
2013-11-17,70.9,61.0,52.9,64.0,58.4,51.0,98,91,72,30.19,29.90,2,0,4,0.10
2013-11-18,76.4,67.0,53.6,67.0,54.0,33.0,97,68,33,29.95,29.81,5,1,9,0.11
2013-11-19,57.5,50.2,43.3,36.0,28.1,24.3,57,43,32,30.25,29.95,5,1,8,0.00
2013-11-20,54.2,45.8,37.1,36.0,32.6,29.0,73,61,49,30.43,30.24,6,1,10,0.00
2013-11-21,60.9,51.1,44.3,48.0,41.6,34.0,79,70,59,30.47,30.36,3,0,6,0.00
2013-11-22,67.0,58.8,52.2,60.0,53.8,45.0,92,83,74,30.37,30.10,3,0,7,0.00
2013-11-23,60.3,56.4,44.5,58.0,47.0,23.0,97,74,40,30.17,30.03,2,0,8,0.01
2013-11-24,44.1,35.9,28.7,25.0,12.7,6.0,52,39,24,30.52,30.17,6,1,10,0.00
2013-11-25,44.7,33.8,21.6,16.0,12.4,8.0,74,44,27,30.58,30.34,1,0,3,0.00
2013-11-26,46.7,39.5,32.6,46.0,33.0,12.0,98,82,33,30.34,29.60,5,0,9,1.70
2013-11-27,46.4,39.6,27.9,46.0,35.4,20.0,98,86,59,30.20,29.54,9,1,12,0.29
2013-11-28,47.0,32.8,21.4,27.0,22.6,19.0,93,68,42,30.49,30.21,2,0,5,0.00
2013-11-29,52.8,39.1,26.2,31.0,26.2,23.0,93,64,36,30.59,30.47,4,0,7,0.00
2013-11-30,48.4,38.4,30.0,29.0,26.4,24.0,79,64,44,30.63,30.37,4,1,9,0.00